PACCTY Weather Reports


Display with metric or nautical units.
time (UTC)temp
F
wind
direction
speed
MPH
gust
MPH
rain 1hr
in
rain 24hr
in
rain mn
in
humidity
%
barometer
mb
20260904170837 58 0 0.0 0.0 0.00 0.36 0.07 99 1010.6
20260904170338 58 0 0.0 0.0 0.00 0.39 0.07 99 1010.6
20260904165837 58 0 0.0 0.0 0.00 0.39 0.07 99 1010.4
20260904165339 58 0 0.0 0.0 0.01 0.39 0.07 99 1010.5
20260904164837 58 0 0.0 0.0 0.01 0.39 0.07 99 1010.4
20260904164337 58 0 0.0 0.0 0.01 0.39 0.07 99 1010.4
20260904163837 57 0 0.0 0.0 0.01 0.39 0.07 99 1010.4
20260904163337 57 0 0.0 0.0 0.01 0.39 0.07 99 1010.3
20260904162837 57 0 0.0 0.0 0.01 0.39 0.07 99 1010.4
20260904162339 57 0 0.0 0.0 0.01 0.39 0.07 99 1010.4
20260904161837 56 0 0.0 0.0 0.01 0.39 0.07 99 1010.4
20260904161337 56 0 0.0 0.0 0.01 0.39 0.07 99 1010.4
20260904160837 56 0 0.0 0.0 0.01 0.39 0.07 99 1010.3
20260904155836 56 0 0.0 0.0 0.01 0.40 0.07 100 1010.4
20260904154836 56 0 0.0 0.0 0.00 0.40 0.06 100 1010.4
20260904154337 56 0 0.0 0.0 0.00 0.40 0.06 100 1010.3
20260904153337 56 0 0.0 0.0 0.00 0.40 0.06 100 1010.3
20260904152837 56 0 0.0 0.0 0.00 0.40 0.06 100 1010.3
20260904151836 55 0 0.0 0.0 0.00 0.40 0.06 100 1010.2
20260904151339 55 0 0.0 0.0 0.00 0.40 0.06 99 1010.1
20260904150837 55 0 0.0 0.0 0.00 0.40 0.06 100 1010.0
20260904150337 55 0 0.0 0.0 0.01 0.42 0.06 100 1009.9
20260904145836 55 0 0.0 0.0 0.01 0.42 0.06 100 1009.9
20260904145340 55 0 0.0 0.0 0.01 0.42 0.06 100 1009.8
20260904144836 55 0 0.0 0.0 0.01 0.42 0.06 100 1009.8
20260904144337 55 0 0.0 0.0 0.01 0.42 0.06 100 1009.6
20260904143836 55 0 0.0 0.0 0.01 0.42 0.06 100 1009.6
20260904143339 55 0 0.0 0.0 0.01 0.42 0.06 100 1009.6
20260904142836 55 0 0.0 0.0 0.01 0.42 0.06 100 1009.6
20260904141836 55 0 0.0 0.0 0.01 0.42 0.06 100 1009.5
20260904141338 55 0 0.0 0.0 0.01 0.42 0.06 100 1009.3
20260904140836 55 0 0.0 0.0 0.01 0.42 0.06 100 1009.3
20260904140337 55 0 0.0 0.0 0.00 0.44 0.06 100 1009.3
20260904134337 55 0 0.0 0.0 0.00 0.44 0.05 100 1009.0
20260904133836 55 0 0.0 0.0 0.00 0.44 0.05 100 1009.0
20260904133337 55 0 0.0 0.0 0.00 0.44 0.05 100 1008.9
20260904132837 55 0 0.0 3.0 0.00 0.44 0.05 100 1008.9
20260904132431 55 32 0.0 3.0 0.01 0.44 0.05 100 1008.8
20260904132339 55 32 0.0 3.0 0.01 0.44 0.05 100 1008.8
20260904131836 55 0 0.0 0.0 0.01 0.44 0.05 100 1008.9
20260904131337 55 0 0.0 0.0 0.01 0.44 0.05 100 1008.8
20260904130836 55 0 0.0 0.0 0.01 0.44 0.05 100 1008.7
20260904130337 55 0 0.0 0.0 0.01 0.45 0.05 100 1008.7
20260904125836 55 0 0.0 0.0 0.01 0.45 0.05 100 1008.7
20260904125340 55 0 0.0 0.0 0.01 0.45 0.05 100 1008.6
20260904124836 55 0 0.0 0.0 0.01 0.45 0.05 100 1008.6
20260904124337 55 0 0.0 0.0 0.01 0.45 0.05 100 1008.6
20260904123838 55 0 0.0 0.0 0.01 0.45 0.05 100 1008.5
20260904123337 55 0 0.0 0.0 0.01 0.45 0.05 100 1008.5
20260904122836 55 0 0.0 0.0 0.01 0.45 0.05 100 1008.5
20260904121836 55 0 0.0 0.0 0.00 0.45 0.05 100 1008.5
20260904121337 55 0 0.0 0.0 0.00 0.45 0.04 100 1008.4
20260904120836 55 0 0.0 0.0 0.00 0.45 0.04 100 1008.5
20260904120337 55 0 0.0 0.0 0.00 0.49 0.04 100 1008.5
20260904115836 55 0 0.0 0.0 0.00 0.49 0.04 100 1008.5
20260904115339 55 0 0.0 0.0 0.01 0.49 0.04 100 1008.5
20260904114836 55 0 0.0 0.0 0.01 0.49 0.04 100 1008.4
20260904114337 55 0 0.0 0.0 0.01 0.49 0.04 100 1008.3
20260904113836 55 0 0.0 0.0 0.01 0.49 0.04 100 1008.3
20260904113337 55 0 0.0 0.0 0.01 0.49 0.04 100 1008.3
20260904112950 55 0 0.0 0.0 0.01 0.49 0.04 100 1008.2
20260904112836 55 0 0.0 0.0 0.01 0.49 0.04 100 1008.2
20260904112339 55 0 0.0 0.0 0.01 0.49 0.04 100 1008.1
20260904111836 55 0 0.0 0.0 0.01 0.49 0.04 100 1008.1
20260904111337 55 0 0.0 0.0 0.01 0.49 0.04 99 1008.0
20260904110836 55 0 0.0 0.0 0.01 0.49 0.04 99 1008.1
20260904110337 55 0 0.0 0.0 0.01 0.51 0.04 99 1008.0
20260904105836 55 0 0.0 0.0 0.01 0.51 0.04 99 1008.1
20260904104338 55 0 0.0 0.0 0.00 0.51 0.03 99 1008.0
20260904103837 55 0 0.0 0.0 0.00 0.51 0.03 99 1008.0
20260904103337 55 0 0.0 0.0 0.00 0.51 0.03 99 1008.0
20260904102836 55 0 0.0 0.0 0.00 0.51 0.03 99 1007.9
20260904102339 55 0 0.0 0.0 0.01 0.51 0.03 99 1007.9
20260904101836 55 0 0.0 0.0 0.01 0.51 0.03 99 1007.7
20260904101337 55 0 0.0 0.0 0.01 0.51 0.03 99 1007.9
20260904100836 55 0 0.0 0.0 0.01 0.51 0.03 99 1007.7
20260904100337 55 0 0.0 0.0 0.01 0.54 0.03 99 1007.9
20260904095836 55 0 0.0 0.0 0.01 0.54 0.03 99 1007.7
20260904094836 55 0 0.0 0.0 0.01 0.54 0.03 99 1007.9
20260904092836 55 0 0.0 0.0 0.01 0.54 0.03 99 1007.7
20260904091836 55 0 0.0 4.0 0.00 0.54 0.02 99 1007.6
20260904090836 55 0 0.0 1.0 0.01 0.54 0.02 99 1007.4
20260904090337 55 0 0.0 0.0 0.01 0.57 0.02 99 1007.4
20260904085836 55 0 0.0 0.0 0.01 0.57 0.02 99 1007.5
20260904084836 55 0 0.0 0.0 0.01 0.57 0.02 99 1007.5
20260904084337 55 0 0.0 0.0 0.01 0.57 0.02 99 1007.4
20260904083836 55 0 0.0 0.0 0.01 0.57 0.02 99 1007.4
20260904083337 55 0 0.0 0.0 0.01 0.57 0.02 99 1007.5
20260904082836 55 0 0.0 0.0 0.01 0.57 0.02 99 1007.5
20260904081836 55 0 0.0 0.0 0.02 0.57 0.02 99 1007.6
20260904081338 55 0 0.0 0.0 0.01 0.57 0.02 99 1007.5
20260904080836 55 0 0.0 0.0 0.01 0.57 0.02 99 1007.5
20260904080337 55 0 0.0 0.0 0.01 0.56 0.01 99 1007.5
20260904075836 55 0 0.0 0.0 0.01 0.56 0.01 99 1007.4
20260904075338 55 0 0.0 0.0 0.01 0.56 0.01 99 1007.5
20260904074836 55 0 0.0 0.0 0.01 0.56 0.01 99 1007.5
20260904074337 55 0 0.0 0.0 0.01 0.56 0.01 99 1007.5
20260904073836 55 0 0.0 0.0 0.01 0.56 0.01 99 1007.6
20260904073337 55 0 0.0 0.0 0.02 0.56 0.01 99 1007.6
20260904072837 55 0 0.0 0.0 0.02 0.56 0.01 99 1007.5
20260904072339 56 0 0.0 0.0 0.01 0.56 0.01 99 1007.4
20260904071836 56 0 0.0 0.0 0.01 0.56 0.01 99 1007.5
20260904071337 56 0 0.0 0.0 0.01 0.56 0.00 99 1007.4
20260904070837 56 0 0.0 0.0 0.01 0.56 0.00 99 1007.5
20260904070337 56 0 0.0 0.0 0.01 0.56 0.00 99 1007.5
20260904065836 56 0 0.0 0.0 0.01 0.56 0.56 99 1007.5
20260904065339 56 0 0.0 0.0 0.02 0.56 0.56 99 1007.5
20260904064836 56 0 0.0 0.0 0.02 0.56 0.56 99 1007.6
20260904064337 56 0 0.0 0.0 0.02 0.56 0.56 99 1007.4
20260904063836 56 0 0.0 0.0 0.02 0.56 0.56 99 1007.5
20260904062836 56 0 0.0 0.0 0.01 0.56 0.55 99 1007.5
20260904062338 56 0 0.0 0.0 0.01 0.56 0.55 99 1007.6
20260904061836 56 0 0.0 0.0 0.01 0.56 0.55 99 1007.6
20260904061337 56 0 0.0 0.0 0.02 0.56 0.55 99 1007.6
20260904060837 56 0 0.0 0.0 0.02 0.56 0.55 99 1007.6
20260904060337 56 0 0.0 0.0 0.02 0.55 0.55 99 1007.6
20260904055836 56 0 0.0 0.0 0.02 0.55 0.55 99 1007.7
20260904054836 56 0 0.0 0.0 0.01 0.54 0.54 99 1007.8
20260904054337 56 0 0.0 0.0 0.02 0.54 0.54 99 1007.7
20260904053836 56 0 0.0 0.0 0.02 0.54 0.54 99 1007.9
20260904053337 56 0 0.0 0.0 0.02 0.54 0.54 99 1007.9
20260904052836 56 0 0.0 0.0 0.02 0.54 0.54 99 1007.9
20260904052339 56 0 0.0 0.0 0.02 0.54 0.54 99 1007.9
20260904051836 56 0 0.0 0.0 0.02 0.54 0.54 99 1007.9
20260904051420 56 0 0.0 0.0 0.01 0.54 0.54 99 1007.9
20260904051337 56 0 0.0 0.0 0.01 0.54 0.54 99 1007.9
20260904050836 56 0 0.0 0.0 0.01 0.54 0.53 99 1007.8
20260904050337 57 0 0.0 0.0 0.02 0.53 0.53 99 1007.8
20260904045836 57 0 0.0 0.0 0.02 0.53 0.53 99 1007.9
20260904045339 57 0 0.0 0.0 0.02 0.53 0.53 99 1007.8
20260904044836 57 0 0.0 0.0 0.02 0.53 0.53 99 1007.8
20260904044338 57 0 0.0 0.0 0.01 0.53 0.53 99 1007.8
20260904043836 57 0 0.0 0.0 0.01 0.53 0.53 99 1007.8
20260904043337 57 0 0.0 0.0 0.02 0.53 0.52 99 1007.7
20260904042836 57 0 0.0 0.0 0.02 0.53 0.52 99 1007.8
20260904041835 57 0 0.0 0.0 0.02 0.53 0.52 99 1007.8
20260904041337 57 0 0.0 0.0 0.02 0.53 0.52 99 1007.7
20260904040836 57 0 0.0 0.0 0.02 0.53 0.52 99 1007.7
20260904040337 57 0 0.0 0.0 0.02 0.52 0.52 99 1007.7
20260904035836 57 0 0.0 0.0 0.02 0.52 0.51 99 1007.7
20260904034337 57 0 0.0 0.0 0.02 0.52 0.51 99 1007.5
20260904033836 57 0 0.0 0.0 0.02 0.52 0.51 99 1007.5
20260904033338 57 0 0.0 0.0 0.01 0.52 0.51 99 1007.5
20260904032835 57 0 0.0 0.0 0.01 0.52 0.51 99 1007.4
20260904032338 57 0 0.0 0.0 0.02 0.52 0.50 99 1007.3
20260904031836 57 0 0.0 0.0 0.02 0.52 0.50 99 1007.3
20260904031336 57 0 0.0 0.0 0.02 0.52 0.50 99 1007.4
20260904030836 57 0 0.0 0.0 0.02 0.52 0.50 99 1007.2
20260904030336 57 0 0.0 0.0 0.01 0.50 0.50 99 1007.3
20260904025835 57 0 0.0 0.0 0.01 0.50 0.50 99 1007.3
20260904025339 57 0 0.0 0.0 0.01 0.50 0.49 99 1007.3
20260904024835 57 0 0.0 0.0 0.01 0.50 0.49 99 1007.3
20260904023837 57 0 0.0 0.0 0.02 0.50 0.49 99 1007.2
20260904022835 58 0 0.0 0.0 0.02 0.50 0.49 99 1007.3
20260904022340 57 0 0.0 0.0 0.01 0.50 0.49 99 1007.3
20260904021837 58 0 0.0 0.0 0.01 0.50 0.48 99 1007.3
20260904021336 58 0 0.0 0.0 0.01 0.50 0.48 99 1007.3
20260904020835 58 0 0.0 0.0 0.01 0.50 0.48 99 1007.2
20260904015835 58 0 0.0 0.0 0.02 0.49 0.48 99 1007.2
20260904015338 58 0 0.0 0.0 0.02 0.49 0.48 99 1007.2
20260904014835 58 0 0.0 0.0 0.02 0.49 0.48 99 1007.2
20260904014335 58 0 0.0 0.0 0.01 0.49 0.48 99 1007.2
20260904013836 58 0 0.0 0.0 0.01 0.49 0.47 99 1007.2
20260904013336 58 0 0.0 0.0 0.01 0.49 0.47 99 1007.1
20260904012835 58 0 0.0 0.0 0.01 0.49 0.47 99 1007.2
20260904012340 58 0 0.0 0.0 0.02 0.49 0.47 99 1007.2
20260904011835 58 0 0.0 0.0 0.02 0.49 0.47 98 1007.2
20260904011335 58 0 0.0 0.0 0.02 0.49 0.47 99 1007.3
20260904010836 58 0 0.0 0.0 0.02 0.49 0.47 99 1007.3
20260904010336 58 0 0.0 0.0 0.01 0.47 0.47 99 1007.2
20260904005835 58 0 0.0 0.0 0.01 0.47 0.46 99 1007.3
20260904005340 58 0 0.0 0.0 0.02 0.47 0.46 99 1007.3
20260904004835 58 0 0.0 0.0 0.02 0.47 0.46 99 1007.3
20260904004336 58 0 0.0 0.0 0.02 0.47 0.46 98 1007.3
20260904003836 58 0 0.0 0.0 0.02 0.47 0.46 98 1007.3
20260904003336 58 0 0.0 0.0 0.02 0.47 0.46 99 1007.3
20260904002836 58 0 0.0 0.0 0.02 0.47 0.46 99 1007.3
20260904001335 58 0 0.0 0.0 0.02 0.47 0.45 98 1007.2
20260904000836 58 0 0.0 0.0 0.02 0.47 0.45 98 1007.2
20260904000336 58 0 0.0 0.0 0.03 0.45 0.45 98 1007.3
20260903235835 58 0 0.0 0.0 0.03 0.45 0.45 98 1007.1
20260903235340 58 0 0.0 0.0 0.02 0.45 0.45 98 1007.1
20260903234908 58 0 0.0 0.0 0.02 0.45 0.44 98 1007.2
20260903234837 58 0 0.0 0.0 0.02 0.45 0.44 98 1007.2
20260903233836 59 0 0.0 0.0 0.03 0.45 0.44 98 1007.3
20260903233338 59 0 0.0 0.0 0.03 0.45 0.44 98 1007.4
20260903232835 59 0 0.0 0.0 0.03 0.45 0.44 98 1007.4
20260903232338 59 0 0.0 0.0 0.03 0.45 0.44 98 1007.4
20260903231835 59 0 0.0 0.0 0.03 0.45 0.43 99 1007.5
20260903231338 59 0 0.0 0.0 0.03 0.45 0.43 99 1007.5
20260903230338 59 0 0.0 0.0 0.03 0.43 0.43 98 1007.5
20260903230035 59 0 0.0 0.0 0.03 0.43 0.43 99 1007.5
20260903225835 59 0 0.0 0.0 0.03 0.43 0.43 99 1007.5
20260903225338 59 0 0.0 0.0 0.03 0.42 0.42 99 1007.5
20260903224835 59 0 0.0 0.0 0.03 0.42 0.42 99 1007.6
20260903224337 59 0 0.0 0.0 0.02 0.42 0.42 99 1007.6
20260903223837 59 0 0.0 0.0 0.02 0.42 0.42 99 1007.5
20260903222835 58 0 0.0 0.0 0.03 0.42 0.41 99 1007.6
20260903222338 58 0 0.0 0.0 0.02 0.42 0.41 99 1007.6
20260903221835 58 0 0.0 0.0 0.02 0.42 0.41 99 1007.5
20260903221336 58 0 0.0 0.0 0.03 0.42 0.40 99 1007.4
20260903220836 58 0 0.0 0.0 0.03 0.42 0.40 99 1007.4
20260903220337 58 0 0.0 0.0 0.02 0.40 0.40 99 1007.4
20260903215835 58 0 0.0 0.0 0.02 0.40 0.40 99 1007.4
20260903215337 58 0 0.0 0.0 0.03 0.40 0.39 98 1007.5
20260903214337 58 0 0.0 0.0 0.03 0.40 0.39 98 1007.6
20260903213835 59 0 0.0 0.0 0.03 0.40 0.39 98 1007.7
20260903213336 59 0 0.0 0.0 0.03 0.40 0.39 98 1007.8
20260903212835 59 0 0.0 0.0 0.03 0.40 0.38 98 1007.8
20260903212335 60 0 0.0 0.0 0.03 0.40 0.38 99 1007.7
20260903211835 59 0 0.0 0.0 0.03 0.40 0.38 99 1007.6
20260903211337 59 0 0.0 4.0 0.03 0.40 0.38 98 1007.5
20260903210336 60 0 0.0 0.0 0.03 0.38 0.37 98 1007.5
20260903205835 60 0 0.0 3.0 0.03 0.38 0.37 99 1007.3
20260903205338 61 0 0.0 3.0 0.03 0.38 0.37 99 1007.5
20260903204835 61 250 0.0 3.0 0.03 0.38 0.37 99 1007.5
20260903204337 61 0 0.0 4.0 0.03 0.38 0.36 99 1007.4
20260903203835 60 203 0.0 4.0 0.03 0.38 0.36 99 1007.4
20260903203336 60 0 0.0 1.0 0.03 0.38 0.36 99 1007.5
20260903202835 60 0 0.0 0.0 0.03 0.38 0.36 99 1007.5
20260903202338 60 0 0.0 0.0 0.03 0.38 0.35 100 1007.5
20260903201836 59 0 0.0 0.0 0.03 0.38 0.35 100 1007.5
20260903200837 59 0 0.0 0.0 0.02 0.38 0.35 99 1007.5
20260903200336 59 0 0.0 0.0 0.03 0.37 0.34 100 1007.5
20260903195835 59 0 0.0 0.0 0.03 0.37 0.34 100 1007.6
20260903195339 59 0 0.0 0.0 0.02 0.37 0.34 100 1007.6
20260903194835 59 0 0.0 0.0 0.02 0.37 0.34 100 1007.7
20260903194336 58 0 0.0 0.0 0.03 0.37 0.33 100 1007.8
20260903193336 58 0 0.0 0.0 0.02 0.37 0.33 100 1007.7
20260903192835 58 0 0.0 0.0 0.02 0.37 0.33 100 1007.8
20260903192338 58 0 0.0 0.0 0.03 0.37 0.32 100 1007.7
20260903191835 58 0 0.0 0.0 0.03 0.37 0.32 100 1007.7
20260903191337 58 0 0.0 0.0 0.03 0.37 0.32 100 1007.8
20260903190836 57 0 0.0 0.0 0.03 0.37 0.32 100 1007.9
20260903190336 57 0 0.0 0.0 0.02 0.35 0.32 100 1007.8
20260903185835 56 0 0.0 0.0 0.02 0.35 0.31 100 1008.0
20260903185338 56 0 0.0 0.0 0.03 0.35 0.31 100 1008.0
20260903184836 56 0 0.0 0.0 0.03 0.35 0.31 100 1008.0
20260903184338 56 0 0.0 0.0 0.02 0.35 0.31 100 1008.0
20260903183836 55 0 0.0 0.0 0.02 0.35 0.30 100 1008.0
20260903183337 55 0 0.0 0.0 0.03 0.35 0.30 100 1008.0
20260903182835 55 0 0.0 0.0 0.03 0.35 0.30 100 1008.2
20260903182338 55 0 0.0 0.0 0.02 0.35 0.30 100 1008.3
20260903181835 55 0 0.0 0.0 0.02 0.35 0.30 100 1008.2
20260903180336 54 0 0.0 0.0 0.03 0.40 0.29 100 1008.3
20260903175835 54 0 0.0 0.0 0.03 0.40 0.29 100 1008.3
20260903174835 54 0 0.0 0.0 0.02 0.40 0.28 100 1008.3
20260903173836 54 0 0.0 0.0 0.03 0.40 0.28 100 1008.3
20260903173337 54 0 0.0 0.0 0.02 0.40 0.28 100 1008.3
20260903172835 54 0 0.0 0.0 0.02 0.40 0.28 100 1008.3
20260903172342 54 0 0.0 0.0 0.02 0.40 0.27 100 1008.4
20260903171335 54 0 0.0 0.0 0.03 0.40 0.27 100 1008.6